Location: Bay Ridge
(40.6340°N, 74.0146°W)
Time: 15:26:20
(UTC+00:00)

OAO 2 Rocket - Pass Details

Date: 15 November 2019
Orbit: 676 x 746 km, 35.0° (Epoch: 07 December)

Event Time Altitude Azimuth Distance (km) Brightness Sun altitude
Exits shadow 10:27:37 17° 250° (WSW) 1,768 4.9 -14.3°
Maximum altitude 10:31:16 44° 185° (S) 973 4.1 -13.6°
Drops below altitude 10° 10:36:01 10° 114° (ESE) 2,142 7.2 -12.7°
Sets 10:38:29 0° 108° (ESE) 3,047 8.7 -12.3°
